This demonstration page uses our WeatherBlox Daily Observations layout. Learn more.

Left ArrowRight Arrow

Hourly Observations for September 27, 2022

Temp ( °F °C ) Dew Point ( °F °C ) Humidity (%) Winds ( mph kmh ) Pressure ( in mb ) Visibility ( mi km ) Precip ( " mm )
12:56 am 00:56 Clear 57 13.9 43 6.1 59 59 SSW 8 13 30.10 1019 10 16 0.00 0.00
1:56 am 01:56 Clear 58 14.4 43 6.1 57 57 SW 8 13 30.09 1019 10 16 0.00 0.00
2:56 am 02:56 Clear 51 10.6 43 6.1 74 74 SW 8 13 30.10 1019 10 16 0.00 0.00
3:56 am 03:56 Clear 57 13.9 43 6.1 59 59 W 8 13 30.09 1019 10 16 0.00 0.00
4:56 am 04:56 Clear 53 11.7 43 6.1 68 68 WNW 6 9 30.09 1019 10 16 0.00 0.00
5:56 am 05:56 Clear 53 11.7 43 6.1 68 68 WNW 5 7 30.09 1019 10 16 0.00 0.00
6:56 am 06:56 Clear 49 9.4 43 6.1 80 80 S 3 6 30.11 1020 10 16 0.00 0.00
7:56 am 07:56 Sunny 50 10 43 6.1 77 77 NW 3 6 30.13 1020 10 16 0.00 0.00
8:56 am 08:56 Sunny 55 12.8 46 7.8 72 72 NW 6 9 30.15 1021 10 16 0.00 0.00
9:56 am 09:56 Sunny 63 17.2 44 6.7 50 50 N 13 20 30.16 1021 10 16 0.00 0.00
10:56 am 10:56 Sunny 67 19.4 44 6.7 44 44 NNW 8 13 30.16 1021 10 16 0.00 0.00
11:56 am 11:56 Sunny 72 22.2 44 6.7 37 37 VRB 6 9 30.16 1021 10 16 0.00 0.00
12:56 pm 12:56 Sunny 76 24.4 44 6.7 32 32 N 7 11 30.15 1021 10 16 0.00 0.00
1:56 pm 13:56 Sunny 79 26.1 45 7.2 30 30 NNE 9 15 30.14 1021 10 16 0.00 0.00
2:56 pm 14:56 Sunny 79 26.1 44 6.7 29 29 NNE 16 26 30.15 1021 10 16 0.00 0.00
3:56 pm 15:56 Sunny 80 26.7 44 6.7 28 28 NNE 16 26 30.13 1020 10 16 0.00 0.00
4:56 pm 16:56 Sunny 79 26.1 43 6.1 28 28 ENE 14 22 30.15 1021 10 16 0.00 0.00
5:56 pm 17:56 Sunny 77 25 43 6.1 30 30 NE 13 20 30.16 1021 10 16 0.00 0.00
6:56 pm 18:56 Sunny 72 22.2 44 6.7 37 37 NE 12 19 30.19 1022 10 16 0.00 0.00
7:56 pm 19:56 Clear 63 17.2 43 6.1 48 48 NE 8 13 30.21 1023 10 16 0.00 0.00
8:56 pm 20:56 Clear 59 15 43 6.1 55 55 NE 9 15 30.24 1024 10 16 0.00 0.00
9:56 pm 21:56 Clear 58 14.4 42 5.6 55 55 ENE 10 17 30.26 1025 10 16 0.00 0.00
10:56 pm 22:56 Clear 53 11.7 42 5.6 66 66 ENE 7 11 30.29 1026 10 16 0.00 0.00
11:56 pm 23:56 Clear 51 10.6 42 5.6 71 71 E 7 11 30.31 1026 10 16 0.00 0.00

Powered by AerisWeather